Location: Elaina
(34.1445°N, 106.7742°W)
Time: 09:51:32
(UTC+00:00)

STARLINK-36092 - Pass Details

Date: 11 December 2025
Orbit: 482 x 484 km, 43.0° (Epoch: 21 January)

Event Time Altitude Azimuth Distance (km) Brightness Sun altitude
Exits shadow 12:31:49 24° 221° (SW) 1,042 3.8 -18.3°
Maximum altitude 12:33:56 61° 148° (SSE) 547 2.7 -17.9°
Drops below altitude 10° 12:37:41 10° 67° (ENE) 1,664 5.8 -17.2°
Sets 12:39:53 0° 64° (ENE) 2,550 6.8 -16.7°
